Location: Unspecified
(0.0000°N, 0.0000°E)
Time: 16:20:55
(UTC+00:00)

LightSail 2 - Pass Details

Date: 24 November 2019
Orbit: 696 x 730 km, 24.0° (Epoch: 13 December)

Event Time Altitude Azimuth Distance (km) Brightness Sun altitude
Exits shadow 04:59:33 13° 310° (NW) 1,996 6.9 -11.0°
Maximum altitude 05:04:05 55° 26° (NNE) 864 5.6 -9.9°
Drops below altitude 10° 05:09:12 10° 103° (ESE) 2,210 9.3 -8.7°
Sets 05:11:42 0° 107° (ESE) 3,135 11.0 -8.2°
